Simultaneous Nadir Overpasses (SNOs) Predictions

Prediction of SNOs between GOES-15 and TERRA Satellite Orbit:

Table of predicted SNOs for the next 14.0 days since TLE Epoch: 4/11/2025
Index Date Time (GOES-15) GOES-15 Lat,Lon TERRA Lat,Lon Distance(km) Time Diff (sec)
1 04/12/2025 05:17:52 -0.13, 61.35 -0.40, 62.55 136.59 80
2 04/12/2025 17:37:32 0.14, 61.31 -0.60, 57.76 402.64 80
3 04/14/2025 17:15:53 0.14, 61.33 0.32, 62.34 114.91 80
4 04/15/2025 05:35:23 -0.14, 61.38 0.67, 57.60 430.11 80
5 04/17/2025 05:19:04 -0.15, 61.40 -0.30, 62.17 86.88 80
6 04/17/2025 17:38:44 0.15, 61.36 -0.68, 57.38 452.45 80
7 04/19/2025 17:17:04 0.16, 61.40 0.26, 61.96 63.91 80
8 04/20/2025 05:36:33 -0.16, 61.45 0.70, 57.21 481.47 80
9 04/22/2025 05:20:12 -0.17, 61.49 -0.23, 61.80 34.88 80
10 04/24/2025 17:18:10 0.17, 61.49 0.17, 61.60 12.32 80
